Location: Ajisawe
(8.4333°N, 4.3833°E)
Time: 11:16:41
(UTC+00:00)

Vanguard 2 Rocket - Pass Details

Date: 24 April 2021
Orbit: 553 x 3326 km, 32.9° (Epoch: 07 May)

Event Time Altitude Azimuth Distance (km) Brightness Sun altitude
Rises 12:43:56 0° 281° (WNW) 5,900 11.3 73.8°
Reaches altitude 10° 12:48:05 10° 291° (WNW) 5,251 11.2 72.8°
Maximum altitude 13:02:41 34° 350° (N) 4,414 11.1 69.3°
Drops below altitude 10° 13:20:09 10° 49° (NE) 6,200 11.1 65.1°
Sets 13:25:43 0° 59° (ENE) 7,046 11.2 63.8°
